User: anonymous
Location: Walnut Point State Park
(39.6958°N, 88.0345°W)
Time: 13:19:06
(UTC-05:00)
Language:

ATLAS 3B R/B - Orbit

View from above orbital plane
View from above orbital plane
View from above satellite
View from above satellite

Ground track
Ground track

The orbit data is extracted from the following two-line orbital elements,

1 28538U 05004B   14270.15127448 0.00000100  00000-0  15422-3 0    02
2 28538  63.8180 283.1428 0206000 243.0536 116.9464 13.43034586    01
Epoch (UTC): 27 September 2014 03:37:50
Eccentricity: 0.0206000
inclination: 63.8180°
perigee height: 944 km
apogee height: 1252 km
right ascension of ascending node: 283.1428°
argument of perigee: 243.0536°
revolutions per day: 13.43034586
mean anomaly at epoch: 116.9464°
orbit number at epoch: 0

The dashed part of the orbit path shows where the satellite is in the earth's shadow,  

DLR